GW4477 Weather Reports


time (UTC)temp
C
wind
direction
speed
KPH
gust
KPH
rain 1hr
cm
rain 24hr
cm
rain mn
cm
humidity
%
barometer
mb
20260904144527 26 252 4.8 16.1 0.00 0.00 0.00 73 1015.2
20260904143033 26 242 8.0 19.3 0.00 0.00 0.00 75 1015.4
20260904141520 25 360 4.8 12.9 0.00 0.00 0.00 78 1015.4
20260904140025 24 360 6.4 14.5 0.00 0.00 0.00 79 1015.5
20260904134503 23 360 8.0 14.5 0.00 0.00 0.00 80 1015.4
20260904133006 23 178 4.8 12.9 0.00 0.00 0.00 82 1015.2
20260904131513 22 360 3.2 6.4 0.00 0.00 0.00 82 1015.1
20260904130032 21 360 3.2 8.0 0.00 0.00 0.00 83 1015.0
20260904124523 21 194 3.2 9.7 0.00 0.00 0.00 82 1014.7
20260904123006 21 360 4.8 12.9 0.00 0.00 0.00 82 1014.6
20260904121518 21 360 4.8 9.7 0.00 0.00 0.00 81 1014.5
20260904120019 21 360 3.2 8.0 0.00 0.00 0.00 80 1014.4
20260904114520 21 360 1.6 8.0 0.00 0.00 0.00 78 1014.3
20260904113032 21 194 3.2 9.7 0.00 0.00 0.00 77 1014.3
20260904111511 22 360 3.2 9.7 0.00 0.00 0.00 76 1014.4
20260904110012 22 186 4.8 12.9 0.00 0.00 0.00 75 1014.3
20260904104520 22 360 6.4 12.9 0.00 0.00 0.00 73 1014.3
20260904103028 22 360 4.8 16.1 0.00 0.00 0.00 72 1014.2
20260904101531 22 194 4.8 12.9 0.00 0.00 0.00 71 1014.1
20260904100014 22 360 4.8 9.7 0.00 0.00 0.00 71 1014.1
20260904094516 23 175 4.8 9.7 0.00 0.00 0.00 70 1014.0
20260904093023 23 167 4.8 9.7 0.00 0.00 0.00 69 1014.0
20260904091530 23 360 4.8 9.7 0.00 0.00 0.00 68 1014.0
20260904090012 23 175 3.2 9.7 0.00 0.00 0.00 66 1014.1
20260904084514 23 194 3.2 9.7 0.00 0.00 0.00 65 1014.1
20260904083027 24 360 6.4 9.7 0.00 0.00 0.00 63 1014.1
20260904081529 25 173 4.8 11.3 0.00 0.00 0.00 62 1014.4
20260904080033 25 188 4.8 12.9 0.00 0.00 0.00 61 1014.3
20260904074519 25 360 4.8 12.9 0.00 0.00 0.00 60 1014.1
20260904073020 25 226 4.8 14.5 0.00 0.00 0.00 59 1014.0
20260904071527 25 360 6.4 12.9 0.00 0.00 0.00 58 1014.0
20260904070029 25 360 6.4 12.9 0.00 0.00 0.00 57 1014.0
20260904064532 25 194 4.8 14.5 0.00 0.00 0.00 58 1014.1
20260904063021 25 360 8.0 16.1 0.00 0.00 0.00 58 1014.0
20260904061526 25 171 6.4 12.9 0.00 0.00 0.00 58 1014.0
20260904060030 25 360 4.8 12.9 0.00 0.00 0.00 57 1013.9
20260904054532 25 360 8.0 14.5 0.00 0.00 0.00 55 1013.8
20260904053035 25 111 6.4 12.9 0.00 0.00 0.00 53 1013.5
20260904051505 24 360 4.8 12.9 0.00 0.00 0.00 57 1013.3
20260904050004 25 182 1.6 6.4 0.00 0.00 0.00 56 1013.3
20260904044504 25 159 1.6 6.4 0.00 0.00 0.00 55 1013.3
20260904043004 25 168 1.6 4.8 0.00 0.00 0.00 54 1013.1
20260904041503 26 171 1.6 4.8 0.00 0.00 0.00 52 1013.0
20260904040013 26 214 1.6 6.4 0.00 0.00 0.00 51 1012.9
20260904034511 27 360 3.2 8.0 0.00 0.00 0.00 50 1012.9
20260904033009 27 185 3.2 6.4 0.00 0.00 0.00 49 1012.8
20260904031508 27 195 4.8 9.7 0.00 0.00 0.00 46 1012.7
20260904030004 28 360 4.8 9.7 0.00 0.00 0.00 44 1012.5
20260904024506 28 190 4.8 12.9 0.00 0.00 0.00 43 1012.4
20260904023007 28 360 4.8 9.7 0.00 0.00 0.00 40 1012.4
20260904021511 29 163 4.8 8.0 0.00 0.00 0.00 37 1012.1
20260904020010 28 150 4.8 8.0 0.00 0.00 0.00 36 1012.0
20260904014502 30 178 3.2 6.4 0.00 0.00 0.00 34 1011.8
20260904013010 31 165 0.0 6.4 0.00 0.00 0.00 33 1011.7
20260904011511 32 148 1.6 4.8 0.00 0.00 0.00 31 1011.5
20260904010034 33 162 1.6 6.4 0.00 0.00 0.00 28 1011.4
20260904004514 34 157 3.2 8.0 0.00 0.00 0.00 26 1011.4
20260904003009 35 144 4.8 9.7 0.00 0.00 0.00 24 1011.3
20260904001513 36 142 9.7 16.1 0.00 0.00 0.00 23 1011.4
20260904000023 36 205 4.8 12.9 0.00 0.00 0.00 24 1011.4
20260903234517 37 173 4.8 16.1 0.00 0.00 0.00 24 1011.5
20260903233018 37 197 8.0 16.1 0.00 0.00 0.00 24 1011.4
20260903231509 37 155 6.4 19.3 0.00 0.00 0.00 25 1011.3
20260903230021 37 136 8.0 16.1 0.00 0.00 0.00 26 1011.2
20260903224518 37 215 8.0 16.1 0.00 0.00 0.00 25 1011.3
20260903223030 37 189 6.4 17.7 0.00 0.00 0.00 24 1011.4
20260903221520 37 179 8.0 19.3 0.00 0.00 0.00 23 1011.4
20260903220014 38 144 8.0 14.5 0.00 0.00 0.00 22 1011.6
20260903214520 38 256 4.8 11.3 0.00 0.00 0.00 22 1011.7
20260903213025 38 236 3.2 11.3 0.00 0.00 0.00 23 1011.8
20260903211526 37 259 0.0 11.3 0.00 0.00 0.00 24 1012.0
20260903210025 37 138 6.4 12.9 0.00 0.00 0.00 23 1012.1
20260903204518 37 64 1.6 12.9 0.00 0.00 0.00 23 1012.3
20260903203033 37 159 8.0 14.5 0.00 0.00 0.00 23 1012.5
20260903201532 37 185 4.8 12.9 0.00 0.00 0.00 25 1012.5
20260903200027 37 163 8.0 14.5 0.00 0.00 0.00 24 1012.6
20260903194526 36 112 6.4 14.5 0.00 0.00 0.00 25 1012.9
20260903193026 36 209 4.8 14.5 0.00 0.00 0.00 27 1013.0
20260903191509 36 213 4.8 11.3 0.00 0.00 0.00 28 1013.0
20260903190007 36 191 3.2 12.9 0.00 0.00 0.00 29 1013.2
20260903184511 36 196 3.2 6.4 0.00 0.00 0.00 26 1013.4
20260903183003 36 24 0.0 9.7 0.00 0.00 0.00 31 1013.5
20260903181502 35 12 0.0 8.0 0.00 0.00 0.00 34 1013.8
20260903180007 35 302 1.6 8.0 0.00 0.00 0.00 33 1013.9
20260903174517 34 360 4.8 9.7 0.00 0.00 0.00 35 1014.1
20260903173018 33 155 3.2 11.3 0.00 0.00 0.00 34 1014.1
20260903171504 32 292 3.2 12.9 0.00 0.00 0.00 38 1014.3
20260903170005 32 240 6.4 12.9 0.00 0.00 0.00 39 1014.3
20260903164510 31 202 6.4 14.5 0.00 0.00 0.00 41 1014.4
20260903163013 30 360 3.2 12.9 0.00 0.00 0.00 43 1014.3
20260903161504 30 184 3.2 12.9 0.00 0.00 0.00 44 1014.2
20260903160008 29 208 4.8 9.7 0.00 0.00 0.00 47 1014.1
20260903154513 29 217 4.8 14.5 0.00 0.00 0.00 46 1014.4
20260903153013 28 239 4.8 12.9 0.00 0.00 0.00 47 1014.2
20260903151523 27 248 4.8 12.9 0.00 0.00 0.00 50 1014.1
20260903150009 27 258 8.0 20.9 0.00 0.00 0.00 52 1014.0